Regional Weather Roundup
Issued by NWS San Angelo, TX

Home | Current Version | Previous Version | Text Only | Print | Product List | Glossary On
Versions: 1 2 3 4 5 6 7 8 9 10 11 12 13 14 15 16 17 18 19 20 21 22 23 24 25 26 27 28 29 30 31 32 33 34 35 36 37 38 39 40 41 42 43 44 45 46 47 48 49 50
000
ASUS44 KSJT 201410
RWRSJT
WEST CENTRAL TEXAS REGIONAL WEATHER ROUNDUP
NATIONAL WEATHER SERVICE SAN ANGELO TX
900 AM CDT SAT SEP 20 2014

NOTE: "FAIR" INDICATES FEW OR NO CLOUDS BELOW 12,000 FEET WITH NO
SIGNIFICANT WEATHER AND/OR OBSTRUCTIONS TO VISIBILITY.

TXZ049-054-064>066-071>073-076>078-098-099-113-114-127-128-139-140-
154-155-168>170-201500
...LOCATIONS ACROSS WEST CENTRAL TEXAS...

CITY           SKY/WX    TMP DP  RH WIND       PRES   REMARKS
SAN ANGELO     CLOUDY    73  71  93 E5        30.00R
ABILENE        CLOUDY    75  70  84 S12       30.01R
DYESS AFB      CLOUDY    73  64  73 S7        30.00R
JUNCTION       MOSUNNY   75  69  81 E3        30.00R
SWEETWATER     CLOUDY    72  72 100 SE7       30.05R
BROWNWOOD      CLOUDY    75  72  88 SE5       30.01R
COLEMAN        CLOUDY    74  71  90 SE7       30.01R
SONORA         CLOUDY    73  70  88 SE7       30.05R
OZONA          FAIR      72  68  88 SE7       30.03R
BRADY          NOT AVBL
$$

TEXAS PANHANDLE/OKLAHOMA PANHANDLE

CITY           SKY/WX    TMP DP  RH WIND       PRES   REMARKS
AMARILLO       CLOUDY    67  65  93 S8        30.08R
BORGER         SUNNY     70  64  81 SW6       30.05R
CANADIAN       SUNNY     70  67  90 S3        30.03R
DALHART        SUNNY     64  62  93 SW7       30.09R
DUMAS          CLOUDY    64  63  97 S3        30.07S FOG
GUYMON         NOT AVBL
HEREFORD       CLOUDY    68  67  98 CALM      30.09S FOG
PAMPA          SUNNY     65  64  95 S6        30.07R FOG
PERRYTON       SUNNY     66  63  90 S7        30.04S
$$

SOUTHERN PANHANDLE/SOUTH PLAINS/ROLLING PLAINS

CITY           SKY/WX    TMP DP  RH WIND       PRES   REMARKS
LUBBOCK        CLOUDY    69  67  93 SE5       30.04R
SNYDER         CLOUDY    70  69  98 SE10      30.02S
CHILDRESS      CLOUDY    71  67  87 SE6       30.03R
SEMINOLE       RAIN      68  68  99 CALM      30.04R
$$

PERMIAN BASIN

CITY           SKY/WX    TMP DP  RH WIND       PRES   REMARKS
MIDLAND        CLOUDY    71  70  96 SE8       30.00R
ODESSA         CLOUDY    71  69  93 S10       30.01R FOG
WINK           MOSUNNY   73  71  93 E8        29.98R
$$

FAR WEST/SOUTHWEST MOUNTAINS/TRANS PECOS

CITY           SKY/WX    TMP DP  RH WIND       PRES   REMARKS
ALPINE         MOSUNNY   69  65  84 SW3       30.14R
DRYDEN           N/A     79  72  79 E7        29.97R
EL PASO        MOSUNNY   69  64  84 N5        30.05R
FORT STOCKTON  MOSUNNY   70  68  93 W8        30.01R
GUADALUPE PASS LGT RAIN  63  63 100 NE17        N/A  VSB<1/4
MARFA          SUNNY     64  63  94 CALM      30.13R
PECOS          CLOUDY    71  69  94 W3        29.99R
$$

DALLAS/FORT WORTH METROPLEX

CITY           SKY/WX    TMP DP  RH WIND       PRES   REMARKS
DFW AIRPORT    PTSUNNY   77  70  79 SE8       30.00S
FTW MEACHAM    PTSUNNY   76  71  85 SE8       30.00R
DAL-EXECUTIVE  CLOUDY    76  71  85 E6        30.01R
GRAND PRAIRIE  MOSUNNY   75  70  83 MISG      30.02R
ADDISON        MOSUNNY   75  70  83 SE9       30.01S
MESQUITE       MOSUNNY   75  70  83 SE5       30.01S
LANCASTER      PTSUNNY   73  69  89 SE3       30.02S
$$

NORTH CENTRAL TEXAS

CITY           SKY/WX    TMP DP  RH WIND       PRES   REMARKS
SHRMAN/DENISON SUNNY     76  69  81 SE7       30.03S
GAINESVILLE    SUNNY     73  70  90 SE8       30.03F
BRIDGEPORT     PTSUNNY   73  71  91 SE5       30.03R
DENTON         PTSUNNY   75  70  84 SE7       30.01R
WAXAHACHIE     PTSUNNY   73  71  94 SE3       30.03R FOG
GRANBURY       CLOUDY    76  72  85 SE7       30.01S HAZE
$$

WESTERN NORTH TEXAS

CITY           SKY/WX    TMP DP  RH WIND       PRES   REMARKS
WICHITA FALLS  SUNNY     74  70  87 SE12      30.00R
VERNON         CLOUDY    75  68  79 S12       30.01R
BRECKENRIDGE   CLOUDY    76  72  86 SE5       30.00R
COMANCHE       CLOUDY    74  73  98 SE7       30.00S
$$

CENTRAL AND SOUTH CENTRAL TEXAS

CITY           SKY/WX    TMP DP  RH WIND       PRES   REMARKS
AUSTIN/BERGSTM CLOUDY    75  73  93 E6        29.97R
WACO           CLOUDY    75  72  90 E5        29.99S
HILLSBORO      CLOUDY    75  71  88 E7        30.01R
TEMPLE         CLOUDY    73  70  88 E7        29.99R
KILLEEN-GRAY   CLOUDY    75  72  88 SE7       30.01R
FORT HOOD      CLOUDY    77  73  88 E6        29.99R
GEORGETOWN     CLOUDY    75  73  94 CALM      29.99R
LAGO VISTA     CLOUDY    75  72  92 E3        30.00S
SAN MARCOS     CLOUDY    75  70  83 E8        29.98R FOG
NEW BRAUNFELS  CLOUDY    76  73  91 E6        29.95R FOG
RANDOLPH AFB   DRIZZLE   75  73  94 E6        29.97R
SAN ANTONIO    CLOUDY    77  73  87 E6        29.96R
STINSON        CLOUDY    77  74  90 NE7       29.94R
PLEASANTON     NOT AVBL
LA GRANGE      CLOUDY    77  76  96 E5        29.95R
GIDDINGS       CLOUDY    74  73  95 E7        30.01S FOG
$$

EAST TEXAS

CITY           SKY/WX    TMP DP  RH WIND       PRES   REMARKS
PARIS          SUNNY     73  66  78 SE7       30.05R
CLARKSVILLE    NOT AVBL
TYLER          SUNNY     76  70  82 E3        30.02R
LONGVIEW       SUNNY     75  70  84 CALM      30.02R
PALESTINE      SUNNY     75  72  90 E5        30.02R
NACOGDOCHES    SUNNY     73  70  88 CALM      30.02S
$$

TEXAS HILL COUNTRY AND EDWARDS PLATEAU

CITY           SKY/WX    TMP DP  RH WIND       PRES   REMARKS
LLANO          PTSUNNY   73  73 100 CALM      30.02R
HORSESHOE BAY  CLOUDY    74  74 100 SE5       29.99R
KERRVILLE      PTSUNNY   74  71  92 SE3       30.00R
FREDERICKSBRG  CLOUDY    73  70  92 E3        30.00S
ROCKSPRINGS    CLOUDY    72  70  94 E7        30.03R FOG
HONDO          CLOUDY    78  73  84 E8        29.97R
UVALDE         CLOUDY    76  74  95 E7        29.95S
DEL RIO        CLOUDY    78  73  84 SE8       29.93R
$$

SOUTHEAST TEXAS

CITY           SKY/WX    TMP DP  RH WIND       PRES   REMARKS
COLLEGE STN    CLOUDY    76  73  91 E8        29.98R
CALDWELL       CLOUDY    73  73 100 CALM      30.02R
CROCKETT       SUNNY     79  75  89 E7        30.04R
BRENHAM        MOSUNNY   77  75  95 E6        29.98R
HUNTSVILLE     SUNNY     75  72  90 NE3       29.99R
CONROE         SUNNY     75  71  87 VRB6      29.98S
HOUSTON BUSH   MOSUNNY   77  73  87 E9        29.96S
HOUSTON HOBBY  MOSUNNY   78  73  84 E13       29.95R
PERLAND        MOSUNNY   80  75  84 E10       29.96R
WHARTON        MOSUNNY   78  74  90 NE7       29.95S
$$

THE UPPER TEXAS COAST

CITY           SKY/WX    TMP DP  RH WIND       PRES   REMARKS
ORANGE         SUNNY     75  75 100 E7        29.99R
PORT ARTHUR    SUNNY     79  70  74 E12       29.96R
GALVESTON      CLOUDY    81  76  84 NE13      29.94R
ANGLETON       SUNNY     80  76  87 NE7       29.94R
BAY CITY       SUNNY    N/A N/A N/A NE7       29.94R
$$

TEXAS COASTAL BEND, RIO GRANDE PLAINS DEEP SOUTH TEXAS

CITY           SKY/WX    TMP DP  RH WIND       PRES   REMARKS
VICTORIA       PTSUNNY   78  76  93 NE8       29.93S
BEEVILLE       CLOUDY    76  76 100 MISG      29.93R
ROCKPORT       SUNNY     78  75  90 NE10      29.91R
PORT ARANSAS   SUNNY     81  77  89 E10       29.90R
PORT LAVACA    MOSUNNY   78  75  92 NE8       29.93R
CORPUS CHRISTI MOSUNNY   82  77  84 NE10      29.90R
KINGSVILLE NAS PTSUNNY   80  77  90 NE7       29.90R
COTULLA        NOT AVBL
LAREDO         SUNNY     79  79 100 NE7       29.93R
BROWNSVILLE    PTSUNNY   81  75  83 S6        29.88R
PORT ISABEL    MOSUNNY   85  78  80 E8        29.87R HAZE
HEBBRONVILLE     N/A     76  75  95 E5        29.92R FOG
MCALLEN        PTSUNNY   81  78  91 E6        29.87R
WESLACO        PTSUNNY   84  77  79 E9        29.87R
FALFURRIAS     CLOUDY   N/A N/A N/A NE5       29.89R
EDINBURG       CLOUDY    79  75  86 CALM      29.87S
$$



USA.gov is the U.S. government's official web portal to all federal, state and local government web resources and services.